Location: City of Moscow
(46.7306°N, 116.9989°W)
Time: 03:40:58
(UTC+00:00)

Cosmos 1833 - Pass Details

Date: 11 December 2025
Orbit: 832 x 866 km, 70.9° (Epoch: 13 January)

Event Time Altitude Azimuth Distance (km) Brightness Sun altitude
Rises 14:09:12 0° 214° (SW) 3,375 7.2 -12.0°
Reaches altitude 10° 14:11:39 10° 218° (SW) 2,449 6.4 -11.7°
Maximum altitude 14:17:14 65° 300° (WNW) 928 4.2 -10.8°
Drops below altitude 10° 14:22:54 10° 22° (NNE) 2,487 6.6 -9.9°
Sets 14:25:25 0° 26° (NNE) 3,432 7.4 -9.5°
